Weather History for Kalispell, MT

Change the Weather History Date:

Thursday, December 13, 2012

  Actual Average Record
Temperature  
Mean Temperature 31 °F 23 °F  
Max Temperature 35 °F 30 °F 57 °F (1924)
Min Temperature 26 °F 16 °F -17 °F (1919)
Degree Days  
Heating Degree Days 34 42  
Month to date heating degree days 429 530  
Since 1 July heating degree days 2409 2734  
Cooling Degree Days 0 0  
Month to date cooling degree days 0 0  
Year to date cooling degree days 192 147  
Moisture  
Dew Point 25 °F    
Average Humidity 81    
Maximum Humidity 92    
Minimum Humidity 70    
Precipitation  
Precipitation 0.00 in 0.04 in 0.71 in (1917)
Month to date precipitation 0.88 0.62  
Year to date precipitation 20.02 16.05  
Snow  
Snow 0.00 in - - ()
Month to date snowfall 3.3  
Year to date snowfall 30.7  
Since 1 July snowfall 5.6  
Snow Depth 0.00 in    
Sea Level Pressure  
Sea Level Pressure 29.93 in    
Wind  
Wind Speed 4 mph (SSW)    
Max Wind Speed 22 mph    
Max Gust Speed 23 mph    
Visibility 10 miles    
Events      
T = Trace of Precipitation, MM = Missing Value Source: NWS Daily Summary

Daily Weather History Graph

Daily Weather History Graph

Search for Another Location

Airport:

Trip Planner

Search our weather history database for the weather conditions in past years. The results will help you decide how hot, cold, wet, or windy it might be!

Date:

Astronomy

Dec. 13, 2012 Rise Set
Actual Time 8:20 AM MST 4:42 PM MST
Civil Twilight 7:43 AM MST 5:19 PM MST
Nautical Twilight 7:03 AM MST 5:59 PM MST
Astronomical Twilight 6:25 AM MST 6:37 PM MST
Moon 8:31 AM MST (12/13) 5:32 PM MST (12/13)
Length of Visible Light 9h 35m
Length of Day
8h 22m
New Moon, 0% of the Moon is Illuminated
Dec 13
New Moon
Dec 19
First Quarter
Dec 28
Full
Jan 4
Last Quarter
Jan 11
New

Hourly Weather History & Observations

Time (MST) Temp. Windchill Dew Point Humidity Pressure Visibility Wind Dir Wind Speed Gust Speed Precip Events Conditions
12:55 AM 28.0 °F - 27.0 °F 96% 29.92 in 10.0 mi Calm Calm - N/A   Overcast
1:55 AM 28.0 °F 22.8 °F 27.0 °F 96% 29.93 in 10.0 mi SSE 4.6 mph - N/A   Overcast
2:55 AM 28.0 °F 24.2 °F 27.0 °F 96% 29.94 in 10.0 mi West 3.5 mph - N/A   Overcast
3:55 AM 26.1 °F - 25.0 °F 96% 29.95 in 10.0 mi Calm Calm - N/A   Overcast
4:55 AM 26.6 °F 22.6 °F 24.8 °F 93% 29.88 in 10.0 mi SSE 3.5 mph - N/A   Overcast
5:55 AM 28.0 °F 24.2 °F 26.1 °F 92% 29.96 in 10.0 mi SW 3.5 mph - N/A   Overcast
6:55 AM 30.0 °F 24.1 °F 27.0 °F 88% 29.96 in 10.0 mi South 5.8 mph - N/A   Overcast
7:55 AM 28.9 °F 23.9 °F 27.0 °F 92% 29.97 in 10.0 mi SSW 4.6 mph - N/A   Overcast
8:55 AM 30.9 °F 25.2 °F 28.0 °F 89% 29.98 in 10.0 mi South 5.8 mph - N/A   Overcast
9:55 AM 32.0 °F 27.5 °F 28.0 °F 85% 29.99 in 10.0 mi South 4.6 mph - N/A   Overcast
10:55 AM 33.1 °F - 27.0 °F 78% 29.99 in 10.0 mi Calm Calm - N/A   Overcast
11:55 AM 34.0 °F 31.0 °F 27.0 °F 75% 29.98 in 10.0 mi SW 3.5 mph - N/A   Overcast
12:55 PM 35.1 °F 27.4 °F 26.1 °F 70% 29.96 in 10.0 mi SSW 10.4 mph - N/A   Overcast
1:55 PM 35.1 °F 29.3 °F 26.1 °F 70% 29.95 in 10.0 mi SSW 6.9 mph - N/A   Overcast
2:55 PM 35.1 °F 28.6 °F 26.1 °F 70% 29.94 in 10.0 mi SSW 8.1 mph - N/A   Overcast
5:55 PM 28.4 °F 23.3 °F 21.2 °F 74% 29.84 in 10.0 mi West 4.6 mph - N/A   Scattered Clouds
6:55 PM 28.9 °F - 21.0 °F 72% 29.92 in 10.0 mi Calm Calm - N/A   Scattered Clouds
7:55 PM 28.9 °F 25.2 °F 23.0 °F 78% 29.91 in 10.0 mi South 3.5 mph - N/A   Overcast
8:55 PM 28.0 °F - 23.0 °F 81% 29.90 in 10.0 mi Calm Calm - N/A   Overcast
9:55 PM 28.0 °F - 24.1 °F 85% 29.90 in 10.0 mi Calm Calm - N/A   Overcast
10:55 PM 28.0 °F 22.8 °F 23.0 °F 81% 29.90 in 10.0 mi West 4.6 mph - N/A   Overcast
11:55 PM 27.0 °F - 21.9 °F 81% 29.89 in 10.0 mi North - - N/A   Mostly Cloudy